Location: Newark
(48.2308°N, 120.8549°W)
Time: 02:03:58
(UTC+00:00)

FENGYUN 1C DEB - Pass Details

Date: 01 February 2022
Orbit: 822 x 948 km, 99.2° (Epoch: 28 May)

Event Time Altitude Azimuth Distance (km) Brightness Sun altitude
Rises 01:37:17 0° 116° (ESE) 3,618 ? -6.3°
Reaches altitude 10° 01:40:20 10° 101° (E) 2,672 ? -6.8°
Maximum altitude 01:44:35 21° 55° (NE) 1,996 ? -7.5°
Drops below altitude 10° 01:48:48 10° 10° (N) 2,648 ? -8.2°
Sets 01:51:48 0° 355° (N) 3,576 ? -8.6°
